RYR1715 LGKR-EIDW

Flight info

Callsign RYR1715
Flight time N/A
Altitude 36000
Route OLGAT DCT OKIMO DCT AIOSA DCT DARZA DCT INGID DCT SIMBA DCT EXITI DCT GASKA DCT MAPOX DCT RAVLO Y70 OTBED L60 PENIL UL28 LELDO M145 BAGSO BAGSO4L
Aircraft B738/M-SDE3FGIJ1LRWY/SB1

Departure

Time 2026-05-04 16:03
Airport Corfu Ioannis Kapodistrias International Airport (LGKR)

Arrival

Time N/A
Airport Dublin Airport (EIDW)
Time Latitude Longitude Altitude Speed Heading
2026-05-04 15:23 39.60667 19.91353 18 ft 0 kts 79°
2026-05-04 15:55 39.60666 19.91351 17 ft 2 kts 79°
2026-05-04 15:55 39.60662 19.91320 17 ft 4 kts 81°
2026-05-04 15:56 39.60658 19.91285 19 ft 4 kts 80°
2026-05-04 15:56 39.60652 19.91251 21 ft 4 kts 64°
2026-05-04 15:56 39.60639 19.91232 18 ft 2 kts 355°
2026-05-04 15:56 39.60637 19.91232 22 ft 0 kts 352°
2026-05-04 16:00 39.60654 19.91228 17 ft 7 kts 349°
2026-05-04 16:00 39.60727 19.91210 17 ft 15 kts 348°
2026-05-04 16:00 39.60849 19.91178 19 ft 20 kts 348°
2026-05-04 16:01 39.60984 19.91142 18 ft 20 kts 348°
2026-05-04 16:01 39.61111 19.91108 18 ft 19 kts 348°
2026-05-04 16:01 39.61204 19.91070 19 ft 11 kts 313°
2026-05-04 16:01 39.61234 19.90995 21 ft 8 kts 293°
2026-05-04 16:02 39.61219 19.90947 21 ft 8 kts 169°
2026-05-04 16:02 39.61164 19.90962 20 ft 25 kts 168°
2026-05-04 16:02 39.59577 19.91371 64 ft 162 kts 167°
2026-05-04 16:03 39.58447 19.91671 715 ft 168 kts 171°
2026-05-04 16:03 39.57708 19.92099 1110 ft 181 kts 138°
2026-05-04 16:03 39.57264 19.93584 1818 ft 181 kts 79°
2026-05-04 16:03 39.58147 19.95289 2847 ft 171 kts 25°
2026-05-04 16:04 39.59263 19.95712 3603 ft 170 kts 358°
2026-05-04 16:04 39.60924 19.94164 4180 ft 211 kts 288°
2026-05-04 16:04 39.60944 19.92192 4555 ft 228 kts 264°
2026-05-04 16:05 39.60658 19.90117 5041 ft 243 kts 256°
2026-05-04 16:05 39.60110 19.87901 5291 ft 271 kts 252°
2026-05-04 16:05 39.58854 19.83148 6789 ft 282 kts 253°
2026-05-04 16:06 39.58249 19.80756 7612 ft 284 kts 255°
2026-05-04 16:06 39.56469 19.73376 10032 ft 292 kts 256°
2026-05-04 16:07 39.55864 19.70830 10555 ft 304 kts 257°
2026-05-04 16:07 39.57842 19.63288 11571 ft 330 kts 330°
2026-05-04 16:08 39.59835 19.61810 12345 ft 332 kts 329°
2026-05-04 16:08 39.65496 19.56447 14510 ft 340 kts 325°
2026-05-04 16:09 39.69319 19.52750 15849 ft 345 kts 325°
2026-05-04 16:09 39.73216 19.49027 17184 ft 350 kts 325°
2026-05-04 16:10 39.77172 19.45266 18414 ft 357 kts 325°
2026-05-04 16:11 39.83287 19.39457 20016 ft 365 kts 325°
2026-05-04 16:11 39.85335 19.37509 20672 ft 365 kts 325°
2026-05-04 16:12 39.91597 19.31545 22139 ft 375 kts 325°
2026-05-04 16:12 39.97987 19.25445 23625 ft 384 kts 325°
2026-05-04 16:13 40.02311 19.21308 24489 ft 387 kts 325°
2026-05-04 16:13 40.06658 19.17142 25336 ft 389 kts 324°
2026-05-04 16:14 40.11040 19.12938 26136 ft 392 kts 324°
2026-05-04 16:14 40.15468 19.08681 26760 ft 399 kts 324°
2026-05-04 16:15 40.22161 19.02233 27937 ft 402 kts 324°
2026-05-04 16:16 40.26470 18.97466 28126 ft 410 kts 315°
2026-05-04 16:17 40.36163 18.84075 28113 ft 405 kts 315°
2026-05-04 16:18 40.43973 18.73361 28102 ft 407 kts 315°
2026-05-04 16:19 40.53773 18.59882 28106 ft 408 kts 315°
2026-05-04 16:20 40.63539 18.46386 28505 ft 410 kts 315°
2026-05-04 16:21 40.69448 18.38192 29432 ft 416 kts 314°
2026-05-04 16:22 40.73427 18.32660 30336 ft 412 kts 314°
2026-05-04 16:22 40.79291 18.24488 31434 ft 409 kts 314°
2026-05-04 16:23 40.85099 18.16373 32510 ft 405 kts 314°
2026-05-04 16:24 40.92847 18.05638 33804 ft 402 kts 318°
2026-05-04 16:25 40.97437 18.01448 34346 ft 402 kts 328°
2026-05-04 16:26 41.07105 17.93889 35249 ft 403 kts 328°
2026-05-04 16:26 41.14345 17.88152 35823 ft 404 kts 328°
2026-05-04 16:27 41.19168 17.84314 36088 ft 407 kts 328°
2026-05-04 16:28 41.26432 17.78520 36100 ft 403 kts 328°
2026-05-04 16:29 41.43166 17.65107 36111 ft 408 kts 327°
2026-05-04 16:31 41.55381 17.55276 36108 ft 411 kts 327°
2026-05-04 16:32 41.70008 17.43439 36100 ft 408 kts 327°
2026-05-04 16:33 41.79635 17.35612 36104 ft 405 kts 327°
2026-05-04 16:34 41.86839 17.29736 36104 ft 403 kts 327°
2026-05-04 16:35 42.01837 17.19414 36110 ft 407 kts 335°
2026-05-04 16:36 42.09651 17.14886 36111 ft 408 kts 334°
2026-05-04 16:37 42.17482 17.10262 36114 ft 411 kts 334°
2026-05-04 16:38 42.27997 17.04005 36088 ft 412 kts 334°
2026-05-04 16:39 42.41103 16.96174 36102 ft 414 kts 334°
2026-05-04 16:40 42.51638 16.89854 36102 ft 414 kts 334°
2026-05-04 16:41 42.64802 16.81924 36104 ft 414 kts 334°
2026-05-04 16:43 42.77952 16.73965 36102 ft 413 kts 334°
2026-05-04 16:43 42.85835 16.69176 36093 ft 414 kts 334°
2026-05-04 16:45 43.01600 16.59558 36109 ft 414 kts 334°
2026-05-04 16:46 43.14781 16.51475 36102 ft 416 kts 334°
2026-05-04 16:47 43.25370 16.44954 36104 ft 418 kts 334°
2026-05-04 16:48 43.35988 16.38390 36102 ft 419 kts 334°
2026-05-04 16:49 43.45714 16.32354 36101 ft 419 kts 334°
2026-05-04 16:50 43.56350 16.25730 36102 ft 420 kts 334°
2026-05-04 16:51 43.64335 16.20739 36106 ft 421 kts 334°
2026-05-04 16:52 43.75000 16.14052 36102 ft 421 kts 334°
2026-05-04 16:53 43.82991 16.09023 36097 ft 421 kts 334°
2026-05-04 16:54 43.93644 16.02297 36101 ft 420 kts 333°
2026-05-04 16:55 44.09615 15.92161 36109 ft 421 kts 333°
2026-05-04 16:56 44.22955 15.83639 36097 ft 423 kts 333°
2026-05-04 16:57 44.30984 15.78503 36095 ft 424 kts 333°
2026-05-04 16:58 44.41708 15.71613 36096 ft 424 kts 333°
2026-05-04 17:00 44.57824 15.61199 36087 ft 426 kts 332°
2026-05-04 17:01 44.71223 15.52492 36086 ft 425 kts 333°
2026-05-04 17:02 44.81967 15.45480 36072 ft 425 kts 333°
2026-05-04 17:03 44.90009 15.40212 36081 ft 425 kts 332°
2026-05-04 17:03 44.98056 15.34925 36060 ft 426 kts 332°
2026-05-04 17:04 45.08815 15.27826 36053 ft 427 kts 332°
2026-05-04 17:05 45.19584 15.20693 36056 ft 427 kts 333°
2026-05-04 17:06 45.27667 15.15319 36053 ft 428 kts 333°
2026-05-04 17:07 45.34854 15.10527 36050 ft 429 kts 333°
2026-05-04 17:07 45.41173 15.06301 36042 ft 429 kts 333°
2026-05-04 17:08 45.49288 15.00861 36049 ft 430 kts 333°
2026-05-04 17:09 45.54649 14.97095 36033 ft 429 kts 331°
2026-05-04 17:09 45.59963 14.93227 36053 ft 429 kts 331°
2026-05-04 17:10 45.73230 14.83585 36038 ft 429 kts 331°
2026-05-04 17:11 45.78552 14.79721 36036 ft 429 kts 331°
2026-05-04 17:12 45.86531 14.73911 36043 ft 429 kts 331°
2026-05-04 17:13 45.99845 14.64170 36042 ft 430 kts 330°
2026-05-04 17:14 46.10510 14.56334 36050 ft 431 kts 331°
2026-05-04 17:15 46.18519 14.50426 36052 ft 431 kts 330°
2026-05-04 17:16 46.29197 14.42515 36052 ft 431 kts 330°
2026-05-04 17:17 46.39884 14.34566 36048 ft 432 kts 330°
2026-05-04 17:18 46.50586 14.26568 35999 ft 432 kts 331°
2026-05-04 17:19 46.61264 14.18549 36003 ft 432 kts 330°
2026-05-04 17:20 46.71947 14.10498 36009 ft 432 kts 330°
2026-05-04 17:20 46.79962 14.04433 36009 ft 433 kts 330°
2026-05-04 17:21 46.90648 13.96309 36027 ft 433 kts 330°
2026-05-04 17:22 46.95997 13.92230 36019 ft 434 kts 330°
2026-05-04 17:23 47.06702 13.84043 36011 ft 434 kts 330°
2026-05-04 17:24 47.14752 13.77858 36000 ft 436 kts 330°
2026-05-04 17:25 47.25470 13.69591 35990 ft 437 kts 330°
2026-05-04 17:26 47.36463 13.61853 35971 ft 438 kts 333°
2026-05-04 17:27 47.50283 13.52470 35952 ft 436 kts 333°
2026-05-04 17:28 47.61279 13.44870 35916 ft 435 kts 332°
2026-05-04 17:29 47.77734 13.33448 35921 ft 435 kts 332°
2026-05-04 17:31 47.91211 13.23231 35922 ft 433 kts 322°
2026-05-04 17:32 48.03403 13.09981 35897 ft 435 kts 321°
2026-05-04 17:33 48.13249 12.99434 35901 ft 436 kts 321°
2026-05-04 17:34 48.23108 12.88859 35907 ft 436 kts 321°
2026-05-04 17:35 48.34606 12.76454 35907 ft 437 kts 321°
2026-05-04 17:36 48.39535 12.71114 35910 ft 437 kts 321°
2026-05-04 17:36 48.44471 12.65755 35907 ft 437 kts 321°
2026-05-04 17:37 48.49395 12.60394 35910 ft 437 kts 321°
2026-05-04 17:37 48.54315 12.55026 35917 ft 436 kts 321°
2026-05-04 17:38 48.59232 12.49648 35915 ft 436 kts 321°
2026-05-04 17:38 48.64141 12.44265 35926 ft 436 kts 321°
2026-05-04 17:39 48.71492 12.36179 35916 ft 435 kts 321°
2026-05-04 17:39 48.76382 12.30783 35921 ft 435 kts 320°
2026-05-04 17:40 48.81271 12.25375 35930 ft 435 kts 320°
2026-05-04 17:40 48.86156 12.19959 35925 ft 435 kts 320°
2026-05-04 17:41 48.91032 12.14539 35941 ft 434 kts 320°
2026-05-04 17:41 48.95905 12.09109 35937 ft 434 kts 320°
2026-05-04 17:42 49.00776 12.03668 35948 ft 435 kts 320°
2026-05-04 17:42 49.05655 11.98203 35942 ft 435 kts 320°
2026-05-04 17:43 49.10527 11.92733 35944 ft 435 kts 320°
2026-05-04 17:43 49.15405 11.87244 35956 ft 436 kts 320°
2026-05-04 17:44 49.20253 11.81773 35943 ft 436 kts 320°
2026-05-04 17:44 49.25126 11.76262 35949 ft 436 kts 320°
2026-05-04 17:45 49.30001 11.70734 35952 ft 436 kts 320°
2026-05-04 17:45 49.34876 11.65192 35949 ft 436 kts 320°
2026-05-04 17:46 49.39778 11.59605 35964 ft 436 kts 319°
2026-05-04 17:46 49.44618 11.54073 35957 ft 437 kts 319°
2026-05-04 17:47 49.49491 11.48491 35959 ft 437 kts 319°
2026-05-04 17:47 49.54362 11.42898 35959 ft 437 kts 319°
2026-05-04 17:48 49.59095 11.37055 35962 ft 434 kts 314°
2026-05-04 17:48 49.63536 11.30749 35962 ft 434 kts 313°
2026-05-04 17:49 49.67947 11.24401 35946 ft 434 kts 313°
2026-05-04 17:49 49.72387 11.18088 35950 ft 434 kts 314°
2026-05-04 17:50 49.76840 11.11791 35946 ft 433 kts 314°
2026-05-04 17:50 49.81285 11.05502 35952 ft 433 kts 314°
2026-05-04 17:51 49.85722 10.99209 35955 ft 432 kts 313°
2026-05-04 17:51 49.90154 10.92904 35974 ft 432 kts 313°
2026-05-04 17:52 49.94576 10.86596 35962 ft 432 kts 313°
2026-05-04 17:52 49.98988 10.80285 35961 ft 431 kts 313°
2026-05-04 17:53 50.03386 10.73979 35962 ft 430 kts 313°
2026-05-04 17:53 50.07772 10.67671 35965 ft 429 kts 313°
2026-05-04 17:54 50.12154 10.61354 35967 ft 429 kts 313°
2026-05-04 17:54 50.16525 10.55037 35974 ft 429 kts 313°
2026-05-04 17:55 50.20900 10.48697 35967 ft 429 kts 313°
2026-05-04 17:55 50.25086 10.42132 35955 ft 423 kts 301°
2026-05-04 17:56 50.28285 10.34555 35969 ft 420 kts 298°
2026-05-04 17:56 50.31437 10.26851 35964 ft 421 kts 298°
2026-05-04 17:57 50.34612 10.19156 35983 ft 421 kts 299°
2026-05-04 17:57 50.37810 10.11452 35974 ft 422 kts 298°
2026-05-04 17:58 50.41013 10.03742 35972 ft 423 kts 298°
2026-05-04 17:58 50.44219 9.96006 35967 ft 423 kts 298°
2026-05-04 17:59 50.47425 9.88248 35976 ft 424 kts 298°
2026-05-04 18:00 50.52224 9.76590 35986 ft 424 kts 298°
2026-05-04 18:00 50.55417 9.68803 35980 ft 424 kts 298°
2026-05-04 18:01 50.58603 9.61012 35976 ft 424 kts 298°
2026-05-04 18:01 50.61784 9.53209 35980 ft 423 kts 298°
2026-05-04 18:02 50.66540 9.41496 35977 ft 423 kts 298°
2026-05-04 18:02 50.69701 9.33685 35977 ft 423 kts 298°
2026-05-04 18:03 50.72859 9.25856 35963 ft 422 kts 297°
2026-05-04 18:03 50.76004 9.18034 35964 ft 422 kts 297°
2026-05-04 18:04 50.79144 9.10205 35973 ft 422 kts 297°
2026-05-04 18:05 50.83842 8.98442 35974 ft 422 kts 297°
2026-05-04 18:05 50.86971 8.90579 35973 ft 422 kts 297°
2026-05-04 18:06 50.91655 8.78763 35982 ft 423 kts 297°
2026-05-04 18:06 50.94771 8.70873 35981 ft 423 kts 297°
2026-05-04 18:07 50.97886 8.62961 35977 ft 423 kts 297°
2026-05-04 18:07 51.00997 8.55036 35974 ft 423 kts 297°
2026-05-04 18:08 51.04103 8.47099 35991 ft 424 kts 297°
2026-05-04 18:08 51.07208 8.39141 35995 ft 424 kts 297°
2026-05-04 18:09 51.13405 8.23181 35989 ft 424 kts 297°
2026-05-04 18:10 51.16472 8.15246 35991 ft 423 kts 296°
2026-05-04 18:10 51.19549 8.07262 36003 ft 423 kts 296°
2026-05-04 18:11 51.22622 7.99262 35997 ft 423 kts 296°
2026-05-04 18:11 51.25694 7.91239 35988 ft 424 kts 296°
2026-05-04 18:12 51.28763 7.83200 35996 ft 424 kts 296°
2026-05-04 18:12 51.31825 7.75153 36005 ft 424 kts 296°
2026-05-04 18:13 51.34885 7.67088 35993 ft 424 kts 296°
2026-05-04 18:14 51.39466 7.54963 36003 ft 425 kts 296°
2026-05-04 18:14 51.42521 7.46847 35990 ft 426 kts 296°
2026-05-04 18:15 51.48617 7.30572 35996 ft 426 kts 296°
2026-05-04 18:16 51.51661 7.22406 35999 ft 426 kts 296°
2026-05-04 18:16 51.54701 7.14225 35985 ft 427 kts 295°
2026-05-04 18:17 51.59260 7.01907 35993 ft 428 kts 295°
2026-05-04 18:18 51.63817 6.89534 35976 ft 429 kts 296°
2026-05-04 18:18 51.66852 6.81262 35985 ft 429 kts 296°
2026-05-04 18:19 51.70887 6.70223 35983 ft 430 kts 296°
2026-05-04 18:19 51.74422 6.60507 35975 ft 430 kts 295°
2026-05-04 18:20 51.77419 6.52244 35973 ft 429 kts 295°
2026-05-04 18:20 51.79943 6.45264 35973 ft 429 kts 295°
2026-05-04 18:21 51.83435 6.35576 35969 ft 429 kts 295°
2026-05-04 18:21 51.85949 6.28577 35979 ft 430 kts 295°
2026-05-04 18:22 51.88926 6.20263 35987 ft 430 kts 295°
2026-05-04 18:22 51.91919 6.11876 35963 ft 431 kts 295°
2026-05-04 18:23 51.94911 6.03466 35967 ft 431 kts 295°
2026-05-04 18:23 51.97900 5.95035 35980 ft 432 kts 295°
2026-05-04 18:24 52.00888 5.86579 35981 ft 432 kts 295°
2026-05-04 18:24 52.03874 5.78098 35965 ft 433 kts 295°
2026-05-04 18:25 52.06858 5.69599 35971 ft 433 kts 295°
2026-05-04 18:25 52.09839 5.61076 35972 ft 434 kts 295°
2026-05-04 18:26 52.12818 5.52531 35970 ft 434 kts 295°
2026-05-04 18:26 52.15790 5.43978 35964 ft 434 kts 295°
2026-05-04 18:27 52.18759 5.35400 35975 ft 435 kts 295°
2026-05-04 18:27 52.21722 5.26814 35978 ft 434 kts 295°
2026-05-04 18:28 52.24175 5.19685 35984 ft 433 kts 295°